Weather in La Punta

Argentina     28°22′17″S   64°47′25″W
temp.,
°C
wind,
m/s
gust,
m/s
humid.,
%
clouds,
%
prec.,
mm/h
press.,
hPa
HPBL,
m
9 may, sun
sun900:00+11ene266925 0.0 1019132
03:00+10ne22730 0.0 101815
06:00+9sse11770 0.0 101810
09:00+11ssw237241 0.0 1020107
12:00+15se325892 0.0 1020442
15:00+17e335550 0.0 1017659
18:00+15e336492 0.0 1018309
21:00+14ese1168100 0.0 102120
10 may, mon
mon1000:00+14s116995 0.0 102215
03:00+13sw227339 0.0 102131
06:00+12sw227652 0.0 102241
09:00+13sw227160 0.0 102493
12:00+17sse3459100 0.0 1024574
15:00+18sse4552100 0.0 1022975
18:00+15ese3564100 0.0 1022231
21:00+12nnw1174100 0.0 102510
11 may, tue
tue1100:00+13w1167100 0.0 102511
03:00+13s1168100 0.0 102413
06:00+12se2472100 0.0 1024113
09:00+12ese3577100 0.0 1025285
12:00+13e337192 0.0 1025512
15:00+17ene326025 0.0 1022997
18:00+16ene23668 0.0 1021143
21:00+12nne33770 0.0 102341
12 may, wed
wed1200:00+11nnw34810 0.0 102353
03:00+10nnw34860 0.0 102265
06:00+10nnw359172 0.0 102283
09:00+11nnw3884100 0.0 1023232
12:00+18nne57571 0.0 1021889
15:00+20nne674997 0.0 10171204
18:00+17nne585947 0.0 1017378
21:00+13nne39702 0.0 1018159
13 may, thu
thu1300:00+12nne312741 0.0 1018267
03:00+11nne41366100 0.0 1016334
06:00+11nne31167100 0.0 1016312
09:00+11nne31069100 0.0 1019265
12:00+17nne5858100 0.0 1018672
15:00+18ne575689 0.0 1016914
18:00+17ne46612 0.0 1016319
21:00+13ne367379 0.0 1018116